Location: Moscow
(44.4414°N, 72.7154°W)
Time: 20:21:32
(UTC+00:00)

SR - All Passes

Search period start: 07 November 2024 00:00
Search period end: 17 November 2024 00:00
Orbit: 575 x 857 km, 66.7° (Epoch: 06 November)

Date Brightness Start Highest point End Pass type
(mag) Time Alt. Az. Time Alt. Az. Time Alt. Az.
07 Nov - 03:44:21 10° SE 03:46:42 14° ESE 03:49:06 10° ENE night (unlit)
07 Nov - 05:23:38 10° SW 05:27:51 61° NW 05:32:22 10° NNE night (unlit)
07 Nov - 07:09:04 10° NW 07:10:42 12° NNW 07:12:23 10° N night (unlit)
07 Nov - 12:19:14 10° N 12:23:26 25° NE 12:27:52 10° E daylight
07 Nov - 14:00:27 10° NW 14:05:36 63° WSW 14:11:07 10° SSE daylight
08 Nov - 04:30:28 10° SSW 04:34:39 59° ESE 04:39:05 10° NE night (unlit)
08 Nov - 06:13:35 10° W 06:16:51 20° NW 06:20:16 10° N night (unlit)
08 Nov - 11:26:45 10° N 11:29:39 15° NE 11:32:40 10° ENE daylight
08 Nov - 13:07:11 10° NNW 13:12:22 67° ENE 13:17:53 10° SE daylight
08 Nov - 14:50:00 10° WNW 14:53:46 20° WSW 14:57:41 10° SSW daylight
09 Nov - 03:38:11 10° SSE 03:41:40 25° ESE 03:45:18 10° NE night (unlit)
09 Nov - 05:19:12 10° WSW 05:23:13 37° NW 05:27:30 10° NNE night (unlit)
09 Nov - 12:14:12 10° NNW 12:18:55 36° NE 12:23:58 10° ESE daylight
09 Nov - 13:55:54 10° NW 14:00:47 40° WSW 14:05:58 10° S daylight
10 Nov - 02:48:10 10° ESE 02:48:53 10° ESE 02:49:37 10° E night (unlit)
10 Nov - 04:25:33 10° SW 04:29:50 82° WNW 04:34:24 10° NNE night (unlit)
10 Nov - 06:10:01 10° WNW 06:12:27 14° NW 06:14:58 10° N night (unlit)
10 Nov - 11:21:26 10° N 11:25:16 21° NE 11:29:19 10° E daylight
10 Nov - 13:02:24 10° NW 13:07:38 81° WSW 13:13:14 10° SSE daylight
10 Nov - 14:46:43 10° W 14:48:44 12° WSW 14:50:49 10° SW daylight
11 Nov - 03:32:39 10° S 03:36:41 42° ESE 03:40:57 10° NE night (unlit)
11 Nov - 05:15:02 10° W 05:18:39 25° NW 05:22:29 10° NNE night (unlit)
11 Nov - 10:29:09 10° N 10:31:23 13° NNE 10:33:41 10° ENE visible
11 Nov - 12:09:13 10° NNW 12:14:18 53° NE 12:19:44 10° SE daylight
11 Nov - 13:51:33 10° NW 13:55:53 26° WSW 14:00:25 10° SSW daylight
12 Nov - 02:40:48 10° SSE 02:43:46 18° ESE 02:46:50 10° ENE night (unlit)
12 Nov - 04:20:54 10° SW 04:25:05 49° NW 04:29:34 10° NNE night (unlit)
12 Nov - 06:07:19 10° NW 06:08:07 10° NNW 06:08:56 10° NNW night (unlit)
12 Nov - 11:16:16 10° NNW 11:20:46 29° NE 11:25:32 10° ESE daylight
12 Nov - 12:57:42 10° NW 13:02:49 52° WSW 13:08:15 10° S daylight
13 Nov - 03:27:30 10° SSW 03:31:46 74° ESE 03:36:20 10° NE night (unlit)
13 Nov - 05:11:10 10° W 05:14:09 17° NW 05:17:17 10° N night (unlit)
13 Nov - 10:23:36 10° N 10:27:01 17° NE 10:30:34 10° E visible
13 Nov - 12:04:20 10° NNW 12:09:35 80° ENE 12:15:12 10° SE daylight
13 Nov - 13:47:36 10° WNW 13:50:51 16° WSW 13:54:12 10° SW daylight
14 Nov - 02:34:55 10° S 02:38:42 31° ESE 02:42:41 10° NE night (unlit)
14 Nov - 04:16:32 10° WSW 04:20:25 31° NW 04:24:35 10° NNE night (unlit)
14 Nov - 09:31:50 10° NNE 09:33:02 11° NNE 09:34:15 10° NE visible
14 Nov - 11:11:13 10° NNW 11:16:10 42° NE 11:21:25 10° ESE visible
14 Nov - 12:53:10 10° NW 12:57:54 33° WSW 13:02:53 10° S daylight
15 Nov - 01:43:42 10° SE 01:45:50 14° ESE 01:48:02 10° ENE night (unlit)
15 Nov - 03:22:39 10° SW 03:26:56 66° NW 03:31:32 10° NNE night (unlit)
15 Nov - 05:07:44 10° WNW 05:09:44 13° NNW 05:11:48 10° N night (unlit)
15 Nov - 10:18:20 10° N 10:22:32 24° NE 10:26:56 10° E visible
15 Nov - 11:59:30 10° NW 12:04:46 67° WSW 12:10:21 10° SSE daylight
16 Nov - 02:29:30 10° SSW 02:33:41 54° ESE 02:38:09 10° NE night (unlit)
16 Nov - 04:12:25 10° W 04:15:50 22° NW 04:19:27 10° N night (unlit)
16 Nov - 09:25:48 10° N 09:28:40 15° NE 09:31:38 10° ENE visible
16 Nov - 11:06:13 10° NNW 11:11:26 63° NE 11:17:00 10° SE visible
16 Nov - 12:48:53 10° WNW 12:52:53 22° WSW 12:57:02 10° SSW daylight
